DW0880 Gualdo Tadino IT current weather conditions

sailwx.info

Wind from 145

Air temperature 17.8° C
Dewpoint 14.1° C

Last reported at 2019-Sep-16 22:02 UTC.
Time now 2019-Sep-16 22:17 UTC

Location: N 43°16' E 012°46'.
View on Google Maps.

See reports from other nearby stations

  
Tides and Currents Weather Stations Pressure Air Temp Water Temp Dewpoint Dewpoint Depression Visibility Wind Speed Wind Dir Waves Ship Positions
date/time (UTC)wind fromknots sea level pressurealtimeterstation pressurevisibilityair tempwater tempwave heightnotes
2019-Sep-16 22:02 145 17.8
2019-Sep-16 21:47 145 17.8
2019-Sep-16 21:33 145 18.3
2019-Sep-16 21:16 145 18.3
2019-Sep-16 21:02 145 18.9
2019-Sep-16 20:47 145 18.9
2019-Sep-16 20:32 130 19.4
2019-Sep-16 20:16 130 20.0
2019-Sep-16 20:01 130 20.0
2019-Sep-16 19:46 130 20.0
2019-Sep-16 19:31 130 20.0
2019-Sep-16 19:16 116 3 gusting 6 20.0
2019-Sep-16 19:01 153 1 gusting 6 20.0
2019-Sep-16 18:46 138 4 gusting 6 20.0
2019-Sep-16 18:31 093 21.1
2019-Sep-16 18:16 093 21.7
2019-Sep-16 18:03 093 22.2
2019-Sep-16 17:47 093 0 gusting 3 23.3
2019-Sep-16 17:31 093 25.0
2019-Sep-16 17:16 093 26.1
2019-Sep-16 17:01 093 26.7
2019-Sep-16 16:46 115 27.2
2019-Sep-16 16:32 201 27.2
2019-Sep-16 16:16 201 27.2
2019-Sep-16 16:01 201 27.2
2019-Sep-16 15:46 198 0 gusting 4 27.2
2019-Sep-16 15:31 334 0 gusting 6 27.2
2019-Sep-16 15:16 310 1 gusting 8 27.8
2019-Sep-16 15:02 265 0 gusting 7 27.8
2019-Sep-16 14:46 267 0 gusting 6 27.8
2019-Sep-16 14:31 166 0 gusting 5 27.8
2019-Sep-16 14:16 290 0 gusting 8 28.3
2019-Sep-16 14:01 316 2 gusting 6 27.8
2019-Sep-16 13:46 298 2 gusting 6 28.3
2019-Sep-16 13:31 283 2 gusting 6 28.9
2019-Sep-16 13:15 317 28.3
2019-Sep-16 13:01 236 1 gusting 9 28.9
2019-Sep-16 12:45 182 2 gusting 8 28.9
2019-Sep-16 12:30 265 27.8
2019-Sep-16 12:15 296 0 gusting 6 27.8
2019-Sep-16 12:00 355 0 gusting 9 27.2
2019-Sep-16 11:45 290 27.8
2019-Sep-16 11:30 290 27.2
2019-Sep-16 11:15 005 1 gusting 7 27.2
2019-Sep-16 11:00 351 4 gusting 7 26.1
2019-Sep-16 10:45 192 1 gusting 6 26.7
2019-Sep-16 10:30 355 25.6
2019-Sep-16 10:17 005 1 gusting 5 25.6
2019-Sep-16 09:46 355 0 gusting 3 24.4
2019-Sep-16 09:31 346 1 gusting 4 23.9
2019-Sep-16 09:15 005 23.3
2019-Sep-16 09:01 278 22.8
2019-Sep-16 08:46 023 21.7
2019-Sep-16 08:31 019 21.1
2019-Sep-16 08:15 017 20.0
2019-Sep-16 08:00 026 19.4
2019-Sep-16 07:45 054 18.3
2019-Sep-16 07:31 054 17.2
2019-Sep-16 07:15 054 16.7
2019-Sep-16 07:00 054 15.6
2019-Sep-16 06:45 054 15.0
2019-Sep-16 06:30 054 13.9
2019-Sep-16 06:15 054 13.3
2019-Sep-16 06:00 074 12.8
2019-Sep-16 05:47 071 12.2
2019-Sep-16 05:33 119 12.2
2019-Sep-16 05:16 119 12.2
2019-Sep-16 05:01 119 12.2
2019-Sep-16 04:46 119 12.2
2019-Sep-16 04:31 119 12.2
2019-Sep-16 04:17 119 12.2
2019-Sep-16 04:01 119 12.2
2019-Sep-16 03:46 119 12.8
2019-Sep-16 03:30 119 12.8
2019-Sep-16 03:16 119 12.8
2019-Sep-16 03:01 119 12.8
2019-Sep-16 02:46 119 12.8
2019-Sep-16 02:30 119 13.3
2019-Sep-16 02:16 119 0 gusting 3 13.3
2019-Sep-16 02:01 119 12.8
2019-Sep-16 01:45 119 13.3
2019-Sep-16 01:31 119 13.3
2019-Sep-16 01:16 119 13.3
2019-Sep-16 01:01 119 13.3
2019-Sep-16 00:46 119 13.9
2019-Sep-16 00:30 119 13.9
2019-Sep-16 00:16 119 13.9
2019-Sep-16 00:00 119 13.9
2019-Sep-15 23:45 119 14.4
2019-Sep-15 23:30 119 14.4
2019-Sep-15 23:15 119 14.4
2019-Sep-15 23:00 119 15.0
2019-Sep-15 22:46 119 0 gusting 5 15.0
2019-Sep-15 22:30 132 15.0
2019-Sep-15 22:16 132 15.6
2019-Sep-15 22:00 132 15.6
2019-Sep-15 21:45 132 16.1
2019-Sep-15 21:30 132 16.1
2019-Sep-15 21:15 132 16.7
2019-Sep-15 21:02 132 16.7
2019-Sep-15 20:46 132 17.2
2019-Sep-15 20:31 132 17.8
2019-Sep-15 20:16 153 0 gusting 2 17.8
2019-Sep-15 20:01 153 18.3
2019-Sep-15 19:47 153 18.9
2019-Sep-15 19:33 153 0 gusting 2 19.4
2019-Sep-15 19:16 153 1 gusting 6 20.0
2019-Sep-15 19:02 084 0 gusting 5 20.6
2019-Sep-15 18:46 086 21.1
2019-Sep-15 18:31 062 1 gusting 5 21.1
2019-Sep-15 18:16 053 21.7
2019-Sep-15 18:01 062 2 gusting 5 22.2
2019-Sep-15 17:46 069 3 gusting 5 22.2
2019-Sep-15 17:31 053 4 gusting 7 22.8
2019-Sep-15 17:16 044 2 gusting 7 23.3
2019-Sep-15 17:01 100 2 gusting 6 23.3
2019-Sep-15 16:46 118 3 gusting 7 23.9
2019-Sep-15 16:31 112 2 gusting 8 23.9
2019-Sep-15 16:16 122 3 gusting 8 24.4
2019-Sep-15 16:01 087 2 gusting 8 24.4
2019-Sep-15 15:46 074 2 gusting 6 25.0
2019-Sep-15 15:31 119 2 gusting 8 25.0
2019-Sep-15 15:16 059 5 gusting 13 25.0
2019-Sep-15 15:02 076 5 gusting 12 25.0
2019-Sep-15 14:46 046 5 gusting 11 25.6
2019-Sep-15 14:31 067 5 gusting 11 26.1
2019-Sep-15 14:16 049 1 gusting 6 26.1
2019-Sep-15 14:00 074 2 gusting 10 26.7
2019-Sep-15 13:46 049 4 gusting 13 26.1
2019-Sep-15 13:31 036 6 gusting 13 26.1
2019-Sep-15 13:16 360 1 gusting 8 26.7
2019-Sep-15 13:00 046 5 gusting 11 26.7
2019-Sep-15 12:45 032 3 gusting 12 27.2
2019-Sep-15 12:30 061 6 gusting 13 26.7
2019-Sep-15 12:15 044 4 gusting 12 26.1
2019-Sep-15 12:00 058 4 gusting 13 26.1
2019-Sep-15 11:45 053 6 gusting 13 25.6
2019-Sep-15 11:30 348 4 gusting 12 26.1
2019-Sep-15 11:15 351 5 gusting 9 26.1
2019-Sep-15 11:00 038 6 gusting 13 25.6
2019-Sep-15 10:45 350 0 gusting 6 25.0
2019-Sep-15 10:30 151 2 gusting 6 24.4
2019-Sep-15 10:15 071 4 gusting 10 23.9
2019-Sep-15 10:00 086 6 gusting 13 23.9
2019-Sep-15 09:45 065 3 gusting 13 24.4
2019-Sep-15 09:32 068 2 gusting 13 23.9
2019-Sep-15 09:17 109 3 gusting 10 23.9
2019-Sep-15 09:02 072 1 gusting 7 23.9
2019-Sep-15 08:46 134 2 gusting 9 23.9
2019-Sep-15 08:32 123 4 gusting 9 23.3
2019-Sep-15 08:16 167 2 gusting 6 23.3
2019-Sep-15 08:01 026 3 gusting 15 22.8
2019-Sep-15 07:46 128 2 gusting 13 22.2
2019-Sep-15 07:30 033 3 gusting 19 22.2
2019-Sep-15 07:16 067 6 gusting 13 21.7
2019-Sep-15 07:01 113 5 gusting 13 21.7
2019-Sep-15 06:46 180 2 gusting 14 21.1
2019-Sep-15 06:31 024 6 gusting 13 21.1
2019-Sep-15 06:15 096 2 gusting 14 20.6
2019-Sep-15 06:00 178 5 gusting 10 19.4
2019-Sep-15 05:45 305 1 gusting 7 18.9
2019-Sep-15 05:30 159 2 gusting 16 18.9
2019-Sep-15 05:15 284 18.3
2019-Sep-15 05:00 219 4 gusting 9 18.9
2019-Sep-15 04:45 036 3 gusting 11 18.9
2019-Sep-15 04:30 351 2 gusting 6 18.9
2019-Sep-15 04:15 235 5 gusting 11 19.4
2019-Sep-15 04:00 131 5 gusting 17 18.9
2019-Sep-15 03:45 028 2 gusting 9 18.9
2019-Sep-15 03:30 146 4 gusting 12 19.4
2019-Sep-15 03:15 140 11 gusting 22 18.9
2019-Sep-15 03:01 005 3 gusting 14 18.3
2019-Sep-15 02:46 016 18.9
2019-Sep-15 02:32 022 0 gusting 3 19.4
2019-Sep-15 02:16 055 19.4
2019-Sep-15 02:02 121 19.4
2019-Sep-15 01:47 148 1 gusting 6 19.4
2019-Sep-15 01:30 072 5 gusting 12 20.0
2019-Sep-15 01:16 119 6 gusting 13 20.0
2019-Sep-15 01:01 167 0 gusting 7 20.0
2019-Sep-15 00:46 185 4 gusting 13 20.6
2019-Sep-15 00:31 144 10 gusting 16 20.6
2019-Sep-15 00:16 121 2 gusting 13 20.6
2019-Sep-15 00:01 114 6 gusting 19 20.6
2019-Sep-14 23:47 146 6 gusting 13 20.0
2019-Sep-14 23:31 154 4 gusting 11 20.0
2019-Sep-14 23:16 313 20.0
2019-Sep-14 23:01 192 4 gusting 10 20.6
2019-Sep-14 22:46 064 3 gusting 10 20.6
2019-Sep-14 22:30 146 5 gusting 14 20.6
2019-Sep-14 22:15 074 4 gusting 16 20.6
2019-Sep-14 22:00 123 6 gusting 14 20.6